Cambridge, MD

2:59 PM EST on February 08, 2016 (GMT -0500)
Cambridge-Dorchester

Weather History for KCGE - May, 2013

Change the Weather History Date:

Wednesday, May 8, 2013

  Actual Average (KESN) Record (KESN)
Temperature  
Mean Temperature 60 °F -  
Max Temperature 69 °F 73 °F 88 °F (1964)
Min Temperature 50 °F 47 °F 35 °F (2007)
Degree Days  
Heating Degree Days 6    
Growing Degree Days 10 (Base 50)    
Moisture  
Dew Point 53 °F    
Average Humidity 82    
Maximum Humidity 100    
Minimum Humidity 49    
Precipitation  
Precipitation 0.00 in - - ()
Sea Level Pressure  
Sea Level Pressure 29.97 in    
Wind  
Wind Speed 3 mph (SSE)    
Max Wind Speed 12 mph    
Max Gust Speed 18 mph    
Visibility 7 miles    
Events      
Averages and records for this station are not official NWS values.
T = Trace of Precipitation, MM = Missing Value Source: NWS Daily Summary

Daily Weather History Graph

Daily Weather History Graph

Search for Another Location

Airport or City:

Trip Planner

Search our weather history database for the weather conditions in past years. The results will help you decide how hot, cold, wet, or windy it might be!

Date:

Astronomy

May. 08, 2013 Rise Set
Actual Time 5:58 AM EDT 8:02 PM EDT
Civil Twilight 5:29 AM EDT 8:32 PM EDT
Nautical Twilight 4:54 AM EDT 9:07 PM EDT
Astronomical Twilight 4:15 AM EDT 9:46 PM EDT
Moon 5:04 AM EDT 6:59 PM EDT
Length of Visible Light 15h 02m
Length of Day
14h 03m
Waning Crescent, 2% of the Moon is Illuminated
May 8
Waning Crescent
May 9
New
May 18
First Quarter
May 25
Full
May 31
Last Quarter

Hourly Weather History & Observations

Time (EDT) Temp. Dew Point Humidity Pressure Visibility Wind Dir Wind Speed Gust Speed Precip Events Conditions
2:20 AM 53.6 °F 51.8 °F 94% 29.96 in 10.0 mi ESE 4.6 mph - N/A   Clear
3:00 AM 53.6 °F 51.8 °F 94% 29.95 in 7.0 mi Calm Calm - N/A   Scattered Clouds
3:20 AM 53.6 °F 51.8 °F 94% 29.95 in 5.0 mi Calm Calm - N/A   Clear
3:40 AM 53.6 °F 51.8 °F 94% 29.95 in 7.0 mi Calm Calm - N/A   Clear
4:00 AM 53.6 °F 51.8 °F 94% 29.95 in 1.5 mi Calm Calm - N/A   Unknown
4:20 AM 51.8 °F 50.0 °F 94% 29.96 in 1.5 mi Calm Calm - N/A   Scattered Clouds
4:40 AM 50.0 °F 50.0 °F 100% 29.95 in 1.5 mi Calm Calm - N/A   Overcast
5:00 AM 50.0 °F 50.0 °F 100% 29.95 in 1.0 mi Calm Calm - N/A   Overcast
5:20 AM 50.0 °F 48.2 °F 94% 29.95 in 0.2 mi Calm Calm - N/A   Overcast
5:40 AM 50.0 °F 46.4 °F 87% 29.95 in 0.2 mi Calm Calm - N/A   Overcast
6:00 AM 50.0 °F 46.4 °F 87% 29.95 in 0.2 mi Calm Calm - N/A   Overcast
6:20 AM 50.0 °F 50.0 °F 100% 29.97 in 0.5 mi NNE 3.5 mph - N/A   Overcast
6:40 AM 51.8 °F 50.0 °F 94% 29.97 in 0.2 mi Calm Calm - N/A   Overcast
7:00 AM 51.8 °F 50.0 °F 94% 29.97 in 0.8 mi Calm Calm - N/A   Overcast
7:20 AM 51.8 °F 50.0 °F 94% 29.98 in 0.8 mi Calm Calm - N/A   Overcast
7:40 AM 53.6 °F 53.6 °F 100% 29.98 in 0.2 mi Calm Calm - N/A   Overcast
8:00 AM 53.6 °F 53.6 °F 100% 29.99 in 0.2 mi Calm Calm - N/A   Overcast
8:20 AM 53.6 °F 53.6 °F 100% 29.99 in 1.0 mi Calm Calm - N/A   Overcast
8:40 AM 55.4 °F 53.6 °F 94% 30.00 in 5.0 mi NE 3.5 mph - N/A   Overcast
9:00 AM 55.4 °F 55.4 °F 100% 30.00 in 7.0 mi Calm Calm - N/A   Overcast
9:20 AM 55.4 °F 55.4 °F 100% 30.00 in 7.0 mi Calm Calm - N/A   Overcast
9:40 AM 55.4 °F 55.4 °F 100% 30.00 in 10.0 mi Calm Calm - N/A   Overcast
10:01 AM 59.0 °F 59.0 °F 100% 30.00 in 10.0 mi Calm Calm - N/A   Mostly Cloudy
10:21 AM 59.0 °F 57.2 °F 94% 30.01 in 10.0 mi NNE 3.5 mph - N/A   Scattered Clouds
10:41 AM 60.8 °F 55.4 °F 82% 30.01 in 10.0 mi NNE 3.5 mph - N/A   Mostly Cloudy
11:01 AM 62.6 °F 55.4 °F 77% 30.01 in 10.0 mi Calm Calm - N/A   Mostly Cloudy
11:21 AM 62.6 °F 57.2 °F 82% 30.00 in 10.0 mi Calm Calm - N/A   Scattered Clouds
11:41 AM 64.4 °F 55.4 °F 73% 30.00 in 10.0 mi Calm Calm - N/A   Mostly Cloudy
12:01 PM 69.8 °F 55.4 °F 60% 30.00 in 10.0 mi SSE 8.1 mph - N/A   Mostly Cloudy
12:21 PM 69.8 °F 55.4 °F 60% 30.00 in 10.0 mi SSE 6.9 mph - N/A   Clear
12:41 PM 69.8 °F 53.6 °F 56% 29.99 in 10.0 mi South 6.9 mph - N/A   Scattered Clouds
1:01 PM 68.0 °F 53.6 °F 60% 29.99 in 10.0 mi South 6.9 mph - N/A   Scattered Clouds
1:21 PM 68.0 °F 53.6 °F 60% 29.99 in 10.0 mi SSE 6.9 mph - N/A   Clear
1:41 PM 69.8 °F 53.6 °F 56% 29.98 in 10.0 mi South 5.8 mph - N/A   Clear
2:01 PM 69.8 °F 51.8 °F 53% 29.98 in 10.0 mi South 10.4 mph - N/A   Scattered Clouds
2:21 PM 69.8 °F 53.6 °F 56% 29.97 in 10.0 mi South 5.8 mph - N/A   Scattered Clouds
2:41 PM 69.8 °F 53.6 °F 56% 29.97 in 10.0 mi South 8.1 mph - N/A   Scattered Clouds
3:01 PM 69.8 °F 50.0 °F 49% 29.96 in 10.0 mi SSE 9.2 mph - N/A   Scattered Clouds
3:21 PM 69.8 °F 50.0 °F 49% 29.96 in 10.0 mi SSE 10.4 mph - N/A   Clear
3:41 PM 69.8 °F 51.8 °F 53% 29.95 in 10.0 mi South 9.2 mph - N/A   Clear
4:01 PM 69.8 °F 51.8 °F 53% 29.94 in 10.0 mi South 6.9 mph 17.3 mph N/A   Clear
4:21 PM 69.8 °F 51.8 °F 53% 29.94 in 10.0 mi South 11.5 mph 16.1 mph N/A   Clear
4:41 PM 69.8 °F 51.8 °F 53% 29.95 in 10.0 mi South 11.5 mph - N/A   Clear
5:01 PM 69.8 °F 53.6 °F 56% 29.95 in 10.0 mi South 8.1 mph - N/A   Clear
5:21 PM 68.0 °F 51.8 °F 56% 29.96 in 10.0 mi South 3.5 mph - N/A   Clear
5:41 PM 68.0 °F 51.8 °F 56% 29.96 in 10.0 mi SSW 5.8 mph - N/A   Clear
6:01 PM 64.4 °F 51.8 °F 64% 29.96 in 10.0 mi SW 6.9 mph - N/A   Clear
6:21 PM 60.8 °F 51.8 °F 72% 29.97 in 7.0 mi SW 10.4 mph 18.4 mph N/A   Mostly Cloudy
6:42 PM 59.0 °F 53.6 °F 82% 29.97 in 5.0 mi SSW 3.5 mph - N/A   Overcast
7:02 PM 59.0 °F 55.4 °F 88% 29.97 in 7.0 mi WSW 5.8 mph - N/A   Overcast
7:22 PM 59.0 °F 55.4 °F 88% 29.98 in 7.0 mi WSW 3.5 mph - N/A   Overcast
7:42 PM 59.0 °F 55.4 °F 88% 29.97 in 7.0 mi Calm Calm - N/A   Mostly Cloudy
8:02 PM 59.0 °F 57.2 °F 94% 29.97 in 10.0 mi Calm Calm - N/A   Scattered Clouds
8:22 PM 59.0 °F 55.4 °F 88% 29.97 in 10.0 mi Calm Calm - N/A   Scattered Clouds
8:42 PM 57.2 °F 55.4 °F 94% 29.97 in 10.0 mi Calm Calm - N/A   Scattered Clouds
9:02 PM 55.4 °F 53.6 °F 94% 29.97 in 10.0 mi Calm Calm - N/A   Scattered Clouds
9:42 PM 55.4 °F 53.6 °F 94% 29.98 in 10.0 mi Calm Calm - N/A   Scattered Clouds
10:02 PM 55.4 °F 53.6 °F 94% 29.98 in 10.0 mi Calm Calm - N/A   Scattered Clouds
10:22 PM 55.4 °F 53.6 °F 94% 29.99 in 5.0 mi Calm Calm - N/A   Mostly Cloudy
10:42 PM 55.4 °F 53.6 °F 94% 29.98 in 4.0 mi East 5.8 mph - N/A   Overcast
11:02 PM 55.4 °F 55.4 °F 100% 29.97 in 7.0 mi East 5.8 mph - N/A   Overcast
11:22 PM 55.4 °F 55.4 °F 100% 29.97 in 7.0 mi ESE 5.8 mph - N/A   Overcast
11:42 PM 55.4 °F 55.4 °F 100% 29.96 in 7.0 mi East 3.5 mph - N/A   Overcast